Weather History for KRQE - December, 2013

Change the Weather History Date:

Sunday, December 15, 2013

  Actual Average Record
Temperature  
Mean Temperature 34 °F -  
Max Temperature 51 °F 43 °F - (-1)
Min Temperature 16 °F 13 °F - (-1)
Degree Days  
Heating Degree Days 32    
Moisture  
Dew Point 17 °F    
Average Humidity 59    
Maximum Humidity 81    
Minimum Humidity 28    
Precipitation  
Precipitation 0.00 in - - ()
Sea Level Pressure  
Sea Level Pressure 30.40 in    
Wind  
Wind Speed 3 mph (North)    
Max Wind Speed 12 mph    
Max Gust Speed -    
Visibility 10 miles    
Events      
Averages and records for this station are not official NWS values.
T = Trace of Precipitation, MM = Missing Value Source: NWS Daily Summary

Daily Weather History Graph

Daily Weather History Graph

Search for Another Location

Airport or City:

Trip Planner

Search our weather history database for the weather conditions in past years. The results will help you decide how hot, cold, wet, or windy it might be!

Date:

Astronomy

Dec. 15, 2013 Rise Set
Actual Time 7:18 AM MST 5:04 PM MST
Civil Twilight 6:50 AM MST 5:32 PM MST
Nautical Twilight 6:18 AM MST 6:04 PM MST
Astronomical Twilight 5:47 AM MST 6:35 PM MST
Moon 4:08 PM MST (12/15) 5:40 AM MST (12/15)
Length of Visible Light 10h 42m
Length of Day
9h 45m
Waxing Gibbous, 98% of the Moon is Illuminated
Dec 15
Waxing Gibbous
Dec 17
Full
Dec 25
Last Quarter
Jan 1
New
Jan 7
First Quarter

Hourly Weather History & Observations

Time (MST) Temp. Windchill Dew Point Humidity Pressure Visibility Wind Dir Wind Speed Gust Speed Precip Events Conditions
12:53 AM 19.0 °F 13.9 °F 14.0 °F 81% 30.42 in 10.0 mi SSW 3.5 mph - N/A   Clear
1:53 AM 21.0 °F - 14.0 °F 74% 30.40 in 10.0 mi Calm Calm - N/A   Clear
2:53 AM 19.0 °F - 12.9 °F 77% 30.38 in 10.0 mi Calm Calm - N/A   Clear
3:53 AM 17.1 °F - 12.0 °F 81% 30.40 in 10.0 mi Calm Calm - N/A   Clear
4:53 AM 19.0 °F 13.9 °F 12.9 °F 77% 30.41 in 10.0 mi NE 3.5 mph - N/A   Clear
5:53 AM 16.0 °F - 10.9 °F 81% 30.45 in 10.0 mi Calm Calm - N/A   Clear
6:53 AM 19.0 °F 12.3 °F 12.0 °F 74% 30.48 in 10.0 mi West 4.6 mph - N/A   Clear
7:53 AM 21.9 °F - 12.0 °F 66% 30.48 in 10.0 mi Calm Calm - N/A   Clear
8:53 AM 28.9 °F 23.9 °F 17.1 °F 61% 30.46 in 10.0 mi Variable 4.6 mph - N/A   Clear
9:53 AM 37.0 °F 31.6 °F 16.0 °F 42% 30.42 in 10.0 mi North 6.9 mph - N/A   Clear
10:53 AM 42.1 °F 40.2 °F 17.1 °F 37% 30.38 in 10.0 mi NW 3.5 mph - N/A   Clear
11:53 AM 44.1 °F 40.1 °F 19.0 °F 37% 30.37 in 10.0 mi SSW 6.9 mph - N/A   Clear
12:53 PM 50.0 °F - 21.0 °F 32% 30.32 in 10.0 mi North 8.1 mph - N/A   Clear
1:53 PM 51.1 °F - 19.9 °F 29% 30.30 in 10.0 mi North 11.5 mph - N/A   Clear
2:53 PM 51.1 °F - 19.0 °F 28% 30.31 in 10.0 mi North 4.6 mph - N/A   Clear
3:53 PM 50.0 °F - 19.0 °F 29% 30.31 in 10.0 mi NNW 8.1 mph - N/A   Clear
4:53 PM 45.0 °F 41.8 °F 19.0 °F 36% 30.35 in 10.0 mi North 5.8 mph - N/A   Clear
5:53 PM 39.9 °F 33.9 °F 19.0 °F 43% 30.39 in 10.0 mi North 9.2 mph - N/A   Clear
6:53 PM 36.0 °F 33.3 °F 19.0 °F 50% 30.41 in 10.0 mi North 3.5 mph - N/A   Clear
7:53 PM 30.0 °F 24.1 °F 19.9 °F 66% 30.44 in 10.0 mi NE 5.8 mph - N/A   Clear
8:53 PM 26.1 °F - 19.0 °F 75% 30.42 in 10.0 mi Calm Calm - N/A   Clear
9:53 PM 26.1 °F - 19.0 °F 75% 30.40 in 10.0 mi Calm Calm - N/A   Clear
10:53 PM 24.1 °F 19.7 °F 19.0 °F 81% 30.40 in 10.0 mi North 3.5 mph - N/A   Clear
11:53 PM 23.0 °F - 18.0 °F 81% 30.40 in 10.0 mi Calm Calm - N/A   Clear